Regional Weather Roundup
Issued by NWS Charleston, SC

Home | Current Version | Previous Version | Text Only | Print | Product List | Glossary On
Versions: 1 2 3 4 5 6 7 8 9 10 11 12 13 14 15 16 17 18 19 20 21 22 23 24 25 26 27 28 29 30 31 32 33 34 35 36 37 38 39 40 41 42 43 44 45 46 47 48 49 50
000
ASUS42 KCHS 312312
RWRCHS

REGIONAL WEATHER ROUNDUP
NATIONAL WEATHER SERVICE CHARLESTON SC
700 PM EDT FRI JUL 31 2015

NOTE: "FAIR" INDICATES FEW OR NO CLOUDS BELOW 12,000 FEET WITH NO
SIGNIFICANT WEATHER AND/OR OBSTRUCTIONS TO VISIBILITY.

NOT ALL STATIONS ARE QUALITY CONTROLLED BY THE NATIONAL
WEATHER SERVICE. USE DATA WITH CAUTION...ESPECIALLY
DEWPOINT OBSERVATIONS.

SCZ027-030-031-034>040-042>050-010000-
...SOUTHEAST SOUTH CAROLINA...

CITY           SKY/WX    TMP DP  RH WIND       PRES   REMARKS
N CHARLESTON   CLOUDY    82  76  81 W5        29.91R
WATERFRONT PRK   N/A     83  79  87 SW12      29.87F HX  94
MOUNT PLEASANT LGT RAIN  82  79  89 SW7       29.91R HX  93
JOHNS ISLAND   FAIR      84  79  84 S9        29.91S HX  96
PINOPOLIS      NOT AVBL
MONCKS CORNER  TSTM      75  72  88 W6G20     29.89F
SUMMERVILLE    FAIR      77  77 100 CALM      29.92S
BEAUFORT MCAS  LGT RAIN  78  74  87 CALM      29.91F
BEAUFORT ARPT  FAIR      81  73  78 CALM      29.91S
HILTON HEAD IS PTSUNNY   81  73  78 CALM      29.92S
WALTERBORO     CLOUDY    77  73  88 SE5       29.92S
ALLENDALE      FAIR      86  73  66 SW3       29.89F HX  93

...SOUTHERN MIDLANDS AND PEE DEE...

CITY           SKY/WX    TMP DP  RH WIND       PRES   REMARKS
GEORGETOWN     NOT AVBL
KINGSTREE      NOT AVBL
ORANGEBURG     LGT RAIN  79  73  82 S7        29.91S
BARNWELL       FAIR      84  77  79 SE7       29.91R HX  94
AIKEN          CLOUDY    90  63  40 S5        29.92F HX  90
MANNING        RAIN      84  70  61 S13G18    29.90R
COLUMBIA       PTSUNNY   94  65  38 SE7       29.87S HX  96
SUMTER         PTSUNNY   92  67  43 W7        29.86R HX  95
FLORENCE       SUNNY     95  69  42 NE3       29.86S HX 100
MYRTLE BEACH   PTSUNNY   84  73  70 S17       29.91R HX  91
N MYRTLE BEACH PTSUNNY   84  76  76 S13       29.89R HX  93

$$

GAZ063-065-086>088-099>101-113>116-118-119-134>141-150-010000-
...SOUTHEAST GEORGIA...

CITY           SKY/WX    TMP DP  RH WIND       PRES   REMARKS
SAVANNAH ARPT  CLOUDY    78  75  90 CALM      29.91S
HUNTER AAF     CLOUDY    80  76  89 W1        29.88F
FORT STEWART   LGT RAIN  77  77 100 CALM      29.87F
STATESBORO     CLOUDY    76  76 100 CALM      29.90F
SYLVANIA       CLOUDY    79  76  91 CALM      29.91F
CLAXTON        NOT AVBL

...CSRA...CENTRAL AND FAR SOUTHEAST GEORGIA...

CITY           SKY/WX    TMP DP  RH WIND       PRES   REMARKS
THOMSON        MOSUNNY   93  75  55 N3        29.93S HX 103
AUGUSTA-BUSH   MOSUNNY   89  73  59 SW10      29.88S HX  97
AUGUSTA-DANIEL MOSUNNY   88  73  61 S7        29.90S HX  95
SWAINSBORO     FAIR      81  81 100 CALM      29.92S HX  91
VIDALIA        CLOUDY    77  73  88 CALM      29.91S
EASTMAN        FAIR      76  76 100 N3        29.94F
HAZLEHURST     FAIR      80  77  89 CALM      29.89S
ALMA           CLOUDY    81  73  76 S9        29.90R
WAYCROSS       TSTM      78  78 100 SE10      29.92R VSB 1/2
JESUP          LGT RAIN  79  77  94 CALM      29.90F
BAXLEY         LGT RAIN  79  72  78 CALM      29.88F
BRUNSWICK      CLOUDY    77  73  88 CALM      29.91S
SAINT SIMONS   TSTM      75  73  93 CALM      29.91S VSB 3/4

$$

SCZ027-028-034-036>038-045-046-048>050-GAZ119-141-010000-
...LAKE AND SUPPLEMENTAL COASTAL OBSERVATIONS...

STATION/POSITION TIME  TEMP    WIND        PRES    WAVE   SWELL
                       AIR SEA DIR/SP/G            HT/PER HT/PER/DIR
                 (UTC) (F)     (DEG/KT/KT) (MB)    (FT/S) (FT/S/D)
UPR LAKE MARION  NOT AVBL
WINYAH BAY       2145   85     200/  9     1011.0
LAKE MURRAY      2200   92     210/  2/  4 1011.2S
ACE BASIN NERRS  NOT AVBL
FORT PULASKI     2200   83 87  190/  6/ 10 1013.2S
SAPELO ISLAND    2200   84     160/  7     1013.0S

$$

ANZ835-935-AMZ111-154-330-350-352-354-370-450-454-472-010000-
...C-MAN AND BUOY OBSERVATIONS...

STATION/POSITION TIME  TEMP    WIND        PRES    WAVE   SWELL
                       AIR SEA DIR/SP/G            HT/PER HT/PER/DIR
                 (UTC) (F)     (DEG/KT/KT) (MB)    (FT/S) (FT/S/D)
BUOY 41004       2250   83 84  200/ 17/ 19 1011.9F   3/ 8   2/ 8
BUOY 41008       2250   82 83  170/ 14/ 16 1012.2F   2/ 5
FOLLY BEACH CMAN 2200   82     210/ 17/ 19 1012.9R
CAPERS NEARSHORE 2208   82     220/ 16/ 21 1012.9R
FRIPP NEARSHORE  2200   83     210/ 10/ 12 1012.4S


STATION/POSITION TIME  TEMP    WIND        PRES    WAVE   SWELL
                       AIR SEA DIR/SP/G            HT/PER HT/PER/DIR
                 (UTC) (F)     (DEG/KT/KT) (MB)    (FT/S) (FT/S/D)
5E ST. MARYS GA  2221      85                N/A     3/ 3
FRYING PAN BUOY  2250   82 85  210/ 17/ 21 1012.6R   4/ 6   2/130/ 8
BUOY 41025       2250   81 86  360/  4/  6 1012.6R   4/ 9   3/130/ 9
CAPE LOOKOUT NC  2200   80      70/ 15/ 17 1012.2R
BUOY 41002       2250   81 81  250/ 17/ 21 1015.1R   8/ 7
BUOY 41010       2220   83 84  170/ 14/ 17 1015.0F
ST AUGUSTINE FL  2300   84 83  210/  8/ 11 1013.4S


$$


USA.gov is the U.S. government's official web portal to all federal, state and local government web resources and services.